CZ-3C DEB, 39352

Orbit data source: Space-Track

CZ-3C DEB, 39352 is space debris in HEO originally from a launch on Sun, 31 Oct 2010 UTC launched from the Xichang Space Center, China (XSC). Debris objects in space refer to the collection of defunct objects orbiting the Earth. Examples of debris include non-operational satellites, rocket bodies, and fragments generated from explosions, collisions, or faulty payload assembly.

Loading next visibility...
Identifier
39352, 2010-057S
Orbit
HEO
Country
Flag of CNCN / PRC
Related business
Manufacturer
CALT
Mission
Spacecraft
Bus & Motor
Unknown
Mass
Unknown
Launch date (UTC)
2010-10-31 (16 years ago)
Launch vehicle
Unknown
Launch site
Xichang Space Center, China (XSC)
Object type
Payload
Rocket body
Debris
Shape & HBR
Unknown shape, 0.2 m
Radar Cross Section
Medium (>0.1 m² and <1 m²)

Expand to show TLE details & history
Last TLE update: 4 days ago

TLE from 4 days ago
0 CZ-3C DEB
1 39352U 10057S   26167.56520527 -.00000010  00000-0  12100-2 0  9997
2 39352  20.4892 157.8546 7173651  32.8701  73.0207  2.18261469101006
Epoch: 2026-06-16T13:33Z
TLE epoch observation values (Epoch: 2026-06-16T13:33:53.735Z)
Latitude
-0.68626°
Longitude
-128.74445°
Altitude
25,242.112 km
Speed
3.055 km/s
True Right ascension
22h 38m 15s
True Declination
0° 41' 07"
Sunlit
Object was in daylight at epoch
Visualization orbit readout
Latitude
Unknown
Longitude
Unknown
Altitude
Unknown
Speed
Unknown
Apparent Right ascension
Unknown
Apparent Declination
Unknown
Sunlit
N/A
Visualization observer readout
Local Sidereal Time
11:43:30
Azimuth
Unknown
Elevation
Unknown
Doppler factor
Unknown
Orbital elements
Apogee altitude
36,742.643 km
Perigee altitude
718.454 km
Semi-major axis
25,108.686 km
Eccentricity
0.71737
Inclination
20.4892°
RAAN
157.8546°
Arg. of periapsis
32.8701°
True anomaly
149.01412°
Mean anomaly
73.0207°
Eccentric anomaly
111.31195°
Mean motion
0.54552 °/min
Orbital period
659.93 mins
BSTAR
0.00121
Loading maneuver chart data...
Computing Atmospheric mass density...
Loading historical data...
Loading historical data...
Loading historical data...
Loading historical data...
Loading historical data...
Loading historical data...
Loading historical data...

Documentation

Showing up to 5 results
|